Weather History for OSDI - October, 2012

Change the Weather History Date:

Wednesday, October 24, 2012

  Actual Average Record
Temperature  
Mean Temperature 66 °F -  
Max Temperature 78 °F 72 °F 89 °F (2003)
Min Temperature 54 °F 41 °F 41 °F (1997)
Cooling Degree Days 1    
Growing Degree Days 16 (Base 50)    
Moisture  
Dew Point 53 °F    
Average Humidity 63    
Maximum Humidity 88    
Minimum Humidity 35    
Precipitation  
Precipitation 0.00 in 0.03 in - ()
Sea Level Pressure  
Sea Level Pressure 29.96 in    
Wind  
Wind Speed 3 mph ()    
Max Wind Speed 9 mph    
Max Gust Speed -    
Visibility 6.6 miles    
Events      
Averages and records for this station are not official NWS values.
T = Trace of Precipitation, MM = Missing Value Source: Averaged Metar Reports

Daily Weather History Graph

Daily Weather History Graph

Search for Another Location

Airport or City:

Trip Planner

Search our weather history database for the weather conditions in past years. The results will help you decide how hot, cold, wet, or windy it might be!

Date:

Astronomy

Oct. 24, 2012 Rise Set
Actual Time 6:45 AM EEST 5:49 PM EEST
Civil Twilight 6:20 AM EEST 6:15 PM EEST
Nautical Twilight 5:51 AM EEST 6:44 PM EEST
Astronomical Twilight 5:22 AM EEST 7:13 PM EEST
Moon 2:41 PM EEST (10/24) 1:34 AM EEST (10/24)
Length of Visible Light 11h 54m
Length of Day
11h 03m
Waxing Gibbous, 73% of the Moon is Illuminated
Oct 24
Waxing Gibbous
Oct 29
Full
Nov 7
Last Quarter
Nov 14
New
Nov 20
First Quarter

Hourly Weather History & Observations

Time (EEST) Temp. Dew Point Humidity Pressure Visibility Wind Dir Wind Speed Gust Speed Precip Events Conditions
12:00 AM 62.6 °F 57.2 °F 82% 30.04 in - North 4.6 mph - N/A   Clear
1:00 AM 60.8 °F 55.4 °F 82% 30.04 in - NNE 4.6 mph - N/A   Clear
2:00 AM 60.8 °F 53.6 °F 77% 30.01 in - NNE 4.6 mph - N/A   Clear
3:00 AM 59 °F 52 °F 70% 29.93 in 9 mi NNE 4.5 mph - -  
3:00 AM 59.0 °F 51.8 °F 77% 30.01 in - NNE 4.6 mph - N/A   Clear
4:00 AM 57.2 °F 51.8 °F 82% 30.01 in - Calm Calm - N/A   Clear
5:00 AM 57.2 °F 53.6 °F 88% 30.01 in - Calm Calm - N/A   Clear
6:00 AM 55.4 °F 50.0 °F 82% 30.01 in - Calm Calm - N/A   Clear
7:00 AM 55.4 °F 50.0 °F 82% 30.01 in 4.3 mi Calm Calm - N/A   Scattered Clouds
8:00 AM 57.2 °F 51.8 °F 82% 30.01 in 4.3 mi Calm Calm - N/A   Mostly Cloudy
9:00 AM 60 °F 52 °F 68% 29.95 in 9 mi Calm Calm - -   Clear
9:00 AM 60.8 °F 51.8 °F 72% 30.01 in - Calm Calm - N/A   Clear
10:00 AM 66.2 °F 53.6 °F 64% 30.01 in 6.2 mi East 4.6 mph - N/A   Mostly Cloudy
11:00 AM 69.8 °F 51.8 °F 53% 30.01 in 6.2 mi East 4.6 mph - N/A   Mostly Cloudy
12:00 PM 71.6 °F 53.6 °F 53% 30.01 in 6.2 mi ESE 4.6 mph - N/A   Mostly Cloudy
1:00 PM 75.2 °F 53.6 °F 47% 29.98 in 6.2 mi ESE 9.2 mph - N/A   Mostly Cloudy
2:00 PM 77.0 °F 50.0 °F 39% 29.95 in 6.2 mi NE 9.2 mph - N/A   Scattered Clouds
3:00 PM 77 °F 54 °F 35% 29.92 in 9 mi ESE 4.5 mph - -   Scattered Clouds
3:00 PM 77.0 °F 55.4 °F 47% 29.92 in 6.2 mi ESE 4.6 mph - N/A   Mostly Cloudy
4:00 PM 77.0 °F 53.6 °F 44% 29.92 in 6.2 mi ENE 4.6 mph - N/A   Mostly Cloudy
5:00 PM 77.0 °F 51.8 °F 41% 29.89 in 6.2 mi East 9.2 mph - N/A   Scattered Clouds
6:00 PM 75.2 °F 53.6 °F 47% 29.89 in 6.2 mi East 2.3 mph - N/A   Scattered Clouds
7:00 PM 69.8 °F 44.6 °F 40% 29.89 in 6.2 mi Calm Calm - N/A   Partly Cloudy
8:00 PM 68.0 °F 53.6 °F 60% 29.92 in 6.2 mi Calm Calm - N/A   Partly Cloudy
9:00 PM 68 °F 55 °F 55% 29.84 in 9 mi Calm Calm - -   Partly Cloudy
9:00 PM 68.0 °F 55.4 °F 64% 29.92 in 6.2 mi Calm Calm - N/A   Scattered Clouds
10:00 PM 68.0 °F 55.4 °F 64% 29.92 in 6.2 mi ESE 4.6 mph - N/A   Scattered Clouds
11:00 PM 68.0 °F 57.2 °F 68% 29.92 in 6.2 mi Calm Calm - N/A   Scattered Clouds